Location: Six Mile Lake
(44.9000°N, 79.7170°W)
Time: 12:28:31
(UTC-05:00)

ISS - Visible Passes

Search period start: 21 January 2022 00:00
Search period end: 31 January 2022 00:00
Orbit: 413 x 423 km, 51.6° (Epoch: 21 January)

Date Brightness Start Highest point End Pass type
(mag) Time Alt. Az. Time Alt. Az. Time Alt. Az.
21 Jan -3.0 17:38:07 10° SSW 17:41:15 40° SE 17:44:25 10° ENE visible
21 Jan -2.7 19:14:53 10° W 19:17:45 39° NW 19:17:45 39° NW visible
22 Jan -3.3 18:26:55 10° WSW 18:30:12 55° NNW 18:32:00 24° NE visible
22 Jan -0.5 20:04:37 10° WNW 20:04:57 12° WNW 20:04:57 12° WNW visible
23 Jan -2.1 19:16:43 10° WNW 19:19:16 27° NNW 19:19:16 27° NNW visible
24 Jan -2.5 18:28:54 10° W 18:31:56 32° NNW 18:33:40 20° NE visible
24 Jan -0.4 20:06:32 10° NW 20:06:38 11° NW 20:06:38 11° NW visible
25 Jan -1.9 19:18:57 10° WNW 19:21:08 23° NNW 19:21:08 23° NNW visible
26 Jan -2.2 18:31:26 10° WNW 18:34:17 25° N 18:35:45 19° NE visible
26 Jan -0.4 20:08:39 10° NW 20:08:44 10° NW 20:08:44 10° NW visible
27 Jan -2.0 19:21:26 10° NW 19:23:28 24° NNW 19:23:28 24° NNW visible
28 Jan -2.3 18:34:16 10° NW 18:37:08 25° N 18:38:21 20° NE visible
28 Jan -0.5 20:11:06 10° NW 20:11:20 12° NW 20:11:20 12° NW visible
29 Jan -2.3 17:47:09 10° WNW 17:49:58 24° N 17:52:47 10° ENE visible
29 Jan -2.4 19:24:10 10° NW 19:26:22 32° NNW 19:26:22 32° NNW visible
30 Jan -2.8 18:37:18 10° NW 18:40:23 33° NNE 18:41:34 25° ENE visible
30 Jan -0.5 20:14:06 10° WNW 20:14:35 13° WNW 20:14:35 13° WNW visible
